Custer, SD

12:54 PM MDT on May 29, 2017 (GMT -0600)
Custer County

Weather History for KCUT - January, 2014

Change the Weather History Date:

Saturday, January 4, 2014

  Actual Average Record
Temperature  
Mean Temperature 29 °F 24 °F  
Max Temperature 39 °F 35 °F 60 °F (1962)
Min Temperature 17 °F 13 °F -31 °F (1959)
Degree Days  
Heating Degree Days 36 41  
Month to date heating degree days 103 164  
Since 1 July heating degree days 3563 3634  
Cooling Degree Days 0 0  
Month to date cooling degree days 0 0  
Year to date cooling degree days 0 0  
Moisture  
Dew Point 6 °F    
Average Humidity 41    
Maximum Humidity 57    
Minimum Humidity 25    
Precipitation  
Precipitation 0.10 in 0.01 in 0.49 in (1926)
Month to date precipitation 0.12 0.04  
Year to date precipitation 0.12 0.04  
Sea Level Pressure  
Sea Level Pressure 29.94 in    
Wind  
Wind Speed 5 mph (South)    
Max Wind Speed 12 mph    
Max Gust Speed 20 mph    
Visibility 4 miles    
Events Snow    
T = Trace of Precipitation, MM = Missing Value Source: NWS Daily Summary

Daily Weather History Graph

Daily Weather History Graph

Search for Another Location

Airport or City:

Trip Planner

Search our weather history database for the weather conditions in past years. The results will help you decide how hot, cold, wet, or windy it might be!

Date:

Astronomy

Jan. 04, 2014 Rise Set
Actual Time 7:28 AM MST 4:30 PM MST
Civil Twilight 6:55 AM MST 5:03 PM MST
Nautical Twilight 6:19 AM MST 5:39 PM MST
Astronomical Twilight 5:44 AM MST 6:14 PM MST
Moon 9:27 AM MST (1/4) 9:02 PM MST (1/4)
Length of Visible Light 10h 07m
Length of Day
9h 02m
Waxing Crescent, 16% of the Moon is Illuminated
Jan 4
Waxing Crescent
Jan 7
First Quarter
Jan 15
Full
Jan 23
Last Quarter
Jan 30
New

Hourly Weather History & Observations

Time (MST) Temp. Windchill Dew Point Humidity Pressure Visibility Wind Dir Wind Speed Gust Speed Precip Events Conditions
12:53 AM 21.9 °F 14.5 °F 9.0 °F 58% 29.79 in 10.0 mi Variable 5.8 mph 16.1 mph N/A   Mostly Cloudy
1:53 AM 21.9 °F 11.7 °F 7.0 °F 53% 29.83 in 10.0 mi North 9.2 mph - N/A   Mostly Cloudy
2:53 AM 25.0 °F 14.8 °F 5.0 °F 43% 29.82 in 10.0 mi North 10.4 mph 19.6 mph N/A   Clear
3:53 AM 24.1 °F 16.0 °F 1.0 °F 37% 29.81 in 10.0 mi Variable 6.9 mph - N/A   Overcast
4:53 AM 19.0 °F 6.8 °F -4.0 °F 36% 29.85 in 10.0 mi North 11.5 mph 18.4 mph N/A   Overcast
5:53 AM 24.1 °F - -2.9 °F 31% 29.87 in 10.0 mi Calm Calm - N/A   Overcast
6:53 AM 19.0 °F - -4.0 °F 36% 29.94 in 10.0 mi Calm Calm - N/A   Overcast
7:53 AM 21.0 °F 13.4 °F -4.0 °F 33% 29.96 in 10.0 mi North 5.8 mph - N/A   Overcast
8:53 AM 25.0 °F 17.1 °F -4.0 °F 28% 29.98 in 10.0 mi NNE 6.9 mph - N/A   Partly Cloudy
9:53 AM 26.1 °F - -2.0 °F 30% 30.01 in 10.0 mi Calm Calm - N/A   Mostly Cloudy
10:53 AM 39.0 °F 34.8 °F 6.1 °F 26% 29.95 in 10.0 mi South 5.8 mph - N/A   Overcast
11:42 AM 39.2 °F 33.0 °F 10.4 °F 31% 29.87 in 10.0 mi South 9.2 mph - N/A   Overcast
11:53 AM 34.0 °F 26.0 °F 10.0 °F 37% 29.96 in 10.0 mi South 10.4 mph - N/A   Mostly Cloudy
12:53 PM 30.0 °F 22.4 °F 9.0 °F 41% 29.98 in 10.0 mi SSW 8.1 mph - N/A   Mostly Cloudy
1:29 PM - - - N/A% 29.87 in 2.0 mi SW 9.2 mph - 0.00 in   Unknown
1:48 PM - - - N/A% 29.88 in 4.0 mi SSW 10.4 mph - 0.01 in   Unknown
1:53 PM - - - N/A% 29.88 in 6.0 mi SSW 9.2 mph - 0.01 in   Unknown
2:18 PM - - - N/A% 29.89 in 2.5 mi Variable 5.8 mph - 0.00 in   Unknown
2:36 PM 28.4 °F 20.4 °F 8.6 °F 43% 29.89 in 3.0 mi WSW 8.1 mph - 0.00 in Snow Light Snow
2:48 PM 24.8 °F 19.1 °F 10.4 °F 54% 29.90 in 2.5 mi WSW 4.6 mph - 0.00 in Snow Light Snow
2:53 PM 24.1 °F 17.0 °F 10.0 °F 55% 30.02 in 3.0 mi WSW 5.8 mph - 0.00 in Snow Light Snow
3:23 PM 30.2 °F 24.3 °F 8.6 °F 40% 29.91 in 8.0 mi SSW 5.8 mph - 0.00 in Snow Light Snow
3:31 PM 30.2 °F 24.3 °F 8.6 °F 40% 29.91 in 5.0 mi SSW 5.8 mph - 0.00 in Snow Light Snow
3:53 PM 25.0 °F 17.1 °F 9.0 °F 51% 30.04 in 8.0 mi SSW 6.9 mph - 0.00 in   Overcast
4:12 PM 26.6 °F 22.6 °F 8.6 °F 47% 29.92 in 1.8 mi SW 3.5 mph - 0.00 in Snow Light Snow
4:25 PM 26.6 °F 21.2 °F 8.6 °F 47% 29.93 in 2.5 mi SW 4.6 mph - 0.00 in Snow Light Snow
4:43 PM 28.4 °F 22.2 °F 8.6 °F 43% 29.93 in 1.0 mi SSW 5.8 mph - 0.00 in Snow Light Snow
4:53 PM 27.0 °F 20.5 °F 8.1 °F 45% 30.07 in 2.0 mi Variable 5.8 mph - 0.00 in Snow Light Snow
5:14 PM 24.8 °F 17.9 °F 8.6 °F 50% 29.93 in 5.0 mi SSW 5.8 mph - 0.00 in Snow Light Snow
5:24 PM 24.8 °F - 8.6 °F 50% 29.94 in 2.0 mi Calm Calm - 0.00 in Snow Light Snow
5:31 PM 24.8 °F 20.5 °F 8.6 °F 50% 29.93 in 1.0 mi South 3.5 mph - 0.00 in Snow Light Snow
5:53 PM 21.9 °F - 7.0 °F 53% 30.08 in 0.8 mi Calm Calm - 0.01 in Snow Light Snow
6:08 PM 19.4 °F 14.3 °F 6.8 °F 58% 29.95 in 0.8 mi SSE 3.5 mph - 0.01 in Snow Light Snow
6:18 PM 17.6 °F 12.3 °F 6.8 °F 63% 29.96 in 1.2 mi SE 3.5 mph - 0.01 in Snow Light Snow
6:48 PM - - - N/A% 29.96 in 2.0 mi ENE 3.5 mph - 0.02 in   Unknown
6:53 PM - - - N/A% 29.96 in 2.0 mi NE 3.5 mph - 0.02 in   Unknown
7:09 PM - - - N/A% 29.96 in 2.0 mi ENE 4.6 mph - 0.00 in   Unknown
7:38 PM - - - N/A% 29.97 in 1.5 mi NNE 3.5 mph - 0.00 in   Unknown
7:53 PM - - - N/A% 29.96 in 1.8 mi Calm Calm - 0.00 in   Unknown
8:01 PM - - - N/A% 29.97 in 2.0 mi Calm Calm - 0.01 in   Unknown
8:21 PM - - - N/A% 29.97 in 1.2 mi Calm Calm - 0.01 in   Unknown
8:37 PM - - - N/A% 29.96 in 2.0 mi Calm Calm - 0.01 in   Unknown
8:53 PM - - - N/A% 29.96 in 2.5 mi ESE 3.5 mph - 0.01 in   Unknown
9:04 PM - - - N/A% 29.96 in 2.0 mi East 3.5 mph - 0.00 in   Unknown
9:28 PM - - - N/A% 29.96 in 1.5 mi ENE 3.5 mph - 0.01 in   Unknown
9:39 PM - - - N/A% 29.96 in 2.0 mi ENE 3.5 mph - 0.01 in   Unknown
9:53 PM - - - N/A% 29.97 in 1.0 mi Calm Calm - 0.02 in   Unknown
10:01 PM - - - N/A% 29.97 in 0.8 mi Calm Calm - 0.00 in   Unknown
10:14 PM - - - N/A% 29.97 in 1.0 mi Calm Calm - 0.01 in   Unknown
10:21 PM - - - N/A% 29.97 in 1.5 mi Calm Calm - 0.01 in   Unknown
10:53 PM - - - N/A% 29.97 in 2.5 mi NNW 3.5 mph - 0.02 in   Unknown
11:01 PM - - - N/A% 29.97 in 5.0 mi North 4.6 mph - 0.00 in   Unknown
11:18 PM - - - N/A% 29.98 in 2.0 mi North 5.8 mph - 0.00 in   Unknown
11:32 PM - - - N/A% 29.98 in 1.2 mi NNW 3.5 mph - 0.00 in   Unknown
11:39 PM - - - N/A% 29.98 in 1.0 mi Calm Calm - 0.01 in   Unknown
11:53 PM - - - N/A% 29.98 in 1.2 mi NNW 4.6 mph - 0.01 in   Unknown